Weather in Horishni Plavni

Ukraine / Poltava Region     49°00′42″N   33°38′09″E
temp.,
°C
wind,
m/s
gust,
m/s
humid.,
%
clouds,
%
prec.,
mm/h
press.,
hPa
HPBL,
m
15 may, sat
sat1500:00+13ssw49835 0.0 1009171
03:00+12ssw410825 0.0 1010208
06:00+12ssw410845 0.0 1011222
09:00+18ssw58650 0.0 1011602
12:00+22ssw684918 0.4 10112148
15:00+22sw4750100 0.4 1011672
18:00+19ssw3765100 0.0 1012150
21:00+18sw23646 0.0 101243
16 may, sun
sun1600:00+14nw1179100 0.0 101311
03:00+14sse11790 0.0 101311
06:00+13n11805 0.0 101310
09:00+19ne336498 0.0 1013421
12:00+23ese3345100 0.0 10131569
15:00+25e3442100 0.0 10111919
18:00+23ene46536 0.0 1010604
21:00+18ne486826 0.0 1009116
17 may, mon
mon1700:00+17ne51373100 0.0 1007270
03:00+15ne3691100 0.2 1005121
06:00+15ene3689100 0.0 1003144
09:00+20e3471100 0.0 1003370
12:00+25se4558100 0.0 10021102
15:00+25se676081 0.0 10011236
18:00+23s79675 0.7 10011203
21:00+17ssw489368 2.4 1003192
18 may, tue
tue1800:00+15sw599235 0.2 1005451
03:00+13sw48965 0.2 1006248
06:00+13s3796100 0.0 1007213
09:00+18s57740 0.8 1007670
12:00+22ssw7957100 1.4 10061334
15:00+23ssw81055100 4.6 10051810
18:00+18wnw798087 3.8 1006729
21:00+13wnw3686100 3.8 1008146
19 may, wed
wed1900:00+12w37905 0.0 1009164
03:00+11w34941 0.0 101060
06:00+12w129222 0.0 101063
09:00+16w237497 0.0 1011669
12:00+19wnw335696 0.1 10111500
15:00+20nw3252100 0.3 10101569
18:00+17wnw2266100 0.1 101021
21:00+15nnw1174100 0.1 101111